Cherry Point, NC

9:48 AM EDT on May 28, 2017 (GMT -0400)
Cherry Point Marine Corps Air Station

Weather History for KNKT - February, 2013

Change the Weather History Date:

Thursday, February 28, 2013

  Actual Average Record
Temperature  
Mean Temperature 46 °F -  
Max Temperature 55 °F 58 °F 78 °F (1997)
Min Temperature 37 °F 38 °F 25 °F (2002)
Degree Days  
Heating Degree Days 19    
Moisture  
Dew Point 35 °F    
Average Humidity 62    
Maximum Humidity 83    
Minimum Humidity 43    
Precipitation  
Precipitation 0.00 in - - ()
Sea Level Pressure  
Sea Level Pressure 29.76 in    
Wind  
Wind Speed 9 mph ()    
Max Wind Speed 15 mph    
Max Gust Speed 18 mph    
Visibility 10.0 miles    
Events      
Averages and records for this station are not official NWS values.
T = Trace of Precipitation, MM = Missing Value Source: Averaged Metar Reports

Daily Weather History Graph

Daily Weather History Graph

Search for Another Location

Airport or City:

Trip Planner

Search our weather history database for the weather conditions in past years. The results will help you decide how hot, cold, wet, or windy it might be!

Date:

Astronomy

Feb. 28, 2013 Rise Set
Actual Time 6:37 AM EST 6:02 PM EST
Civil Twilight 6:12 AM EST 6:28 PM EST
Nautical Twilight 5:43 AM EST 6:57 PM EST
Astronomical Twilight 5:13 AM EST 7:26 PM EST
Moon 9:16 PM EST 7:55 AM EST
Length of Visible Light 12h 15m
Length of Day
11h 24m
Waning Gibbous, 91% of the Moon is Illuminated
Feb 28
Waning Gibbous
Mar 4
Last Quarter
Mar 11
New
Mar 19
First Quarter
Mar 27
Full

Hourly Weather History & Observations

Time (EST) Temp. Windchill Dew Point Humidity Pressure Visibility Wind Dir Wind Speed Gust Speed Precip Events Conditions
12:54 AM 46.0 °F 41.9 °F 41.0 °F 83% 29.74 in 10.0 mi SW 8.1 mph - N/A   Clear
1:54 AM 46.0 °F 41.4 °F 39.9 °F 79% 29.73 in 10.0 mi SW 9.2 mph - N/A   Clear
2:54 AM 46.0 °F 41.4 °F 39.9 °F 79% 29.72 in 10.0 mi WSW 9.2 mph - N/A   Clear
3:54 AM 45.0 °F 39.7 °F 39.0 °F 80% 29.72 in 10.0 mi WSW 10.4 mph - N/A   Clear
4:54 AM 46.9 °F - 39.0 °F 74% 29.73 in 10.0 mi West 13.8 mph - N/A   Clear
5:54 AM 46.0 °F 40.2 °F 39.0 °F 76% 29.74 in 10.0 mi West 12.7 mph - N/A   Clear
6:54 AM 44.1 °F 39.0 °F 37.9 °F 79% 29.75 in 10.0 mi West 9.2 mph - N/A   Clear
7:54 AM 46.9 °F - 39.0 °F 74% 29.76 in 10.0 mi West 10.4 mph - N/A   Scattered Clouds
8:54 AM 50.0 °F - 39.9 °F 68% 29.77 in 10.0 mi West 9.2 mph - N/A   Scattered Clouds
9:54 AM 53.1 °F - 37.0 °F 55% 29.76 in 10.0 mi WNW 11.5 mph - N/A   Scattered Clouds
10:54 AM 55.0 °F - 33.1 °F 43% 29.75 in 10.0 mi West 11.5 mph 16.1 mph N/A   Scattered Clouds
11:54 AM 55.9 °F - 35.1 °F 45% 29.73 in 10.0 mi WNW 8.1 mph - N/A   Mostly Cloudy
12:54 PM 54.0 °F - 33.1 °F 45% 29.71 in 10.0 mi WNW 10.4 mph - N/A   Partly Cloudy
1:54 PM 53.1 °F - 34.0 °F 48% 29.72 in 10.0 mi NW 12.7 mph - N/A   Overcast
2:54 PM 53.1 °F - 32.0 °F 45% 29.71 in 10.0 mi NW 10.4 mph - N/A   Mostly Cloudy
3:54 PM 51.8 °F - 30.2 °F 44% - 10.0 mi NW 11.5 mph 18.4 mph N/A   Mostly Cloudy
4:54 PM 51.1 °F - 30.0 °F 44% 29.74 in 10.0 mi West 15.0 mph - N/A   Overcast
5:54 PM 50.0 °F - 32.0 °F 50% 29.76 in 10.0 mi WNW 10.4 mph - N/A   Mostly Cloudy
6:54 PM 48.9 °F - 30.9 °F 50% 29.79 in 10.0 mi WNW 9.2 mph - N/A   Mostly Cloudy
7:54 PM 46.9 °F - 30.9 °F 54% 29.81 in 10.0 mi West 9.2 mph - N/A   Clear
8:54 PM 44.1 °F 40.1 °F 30.9 °F 60% 29.82 in 10.0 mi West 6.9 mph - N/A   Clear
9:54 PM 39.9 °F 35.1 °F 30.9 °F 70% 29.83 in 10.0 mi West 6.9 mph - N/A   Clear
10:54 PM 37.9 °F 32.1 °F 30.0 °F 73% 29.83 in 10.0 mi WSW 8.1 mph - N/A   Clear
11:54 PM 41.0 °F 35.8 °F 28.9 °F 62% 29.83 in 10.0 mi West 8.1 mph - N/A   Clear